sat.trackr.live / text

‹ back to catalog

CONNECTA IOT-15

NORAD 67402 · 2026-004AR

PAYLOAD ACTIVE UNKNOWN

§ Identity

Operator
Country
TURK
Launch date
2026-01-11
Launch site
AFWTR
Launch vehicle
Mass (kg)
RCS (m²)

External: N2YO · Heavens-Above · Gunter

§ Orbital elements

Epoch: 2026-05-24T23:53:01.221792Z

Period
94.89 min
Inclination
97.4565°
Eccentricity
0.0005061
Mean motion
15.17553363 rev/d
Perigee alt
509.7 km
Apogee alt
516.7 km
Semi-major
6,891.4 km
B*
1.3242e-4
RAAN
144.2011°
Arg perigee
64.8032°
Mean anomaly
295.3726°
Rev number
2,021

§ Raw data

CONNECTA IOT-151 67402U 26004AR  26144.99515303  .00002591  00000+0  13242-3 0  99942 67402  97.4565 144.2011 0005061  64.8032 295.3726 15.17553363 20213

JSON: /api/v1/satellites/67402 · /tle

For live sub-satellite position, see the globe view (requires WebGL).

§ Visibility from observer

Set your observer location to see the next 7 days of passes ≥ 10°. The values pass through the URL so the page stays shareable.

No JS? Fill the form by hand. The geolocation button needs JavaScript.